Temperature
9 11 11 10 10 11 11 11 11 11 11 11 12 12 13 13 12 12 12 11 11 10 10 10 10 10 10 10 11 11 11 11 11 11 11 11 11 11 11 11 11 11 11 11
11 10 9 9 9 10 10 11 11 11 10 11 11 12 13 13 12 12 12 11 11 10 10 9 9 9 9 10 10 10 10 10 10 10 10 11 11 11 11 11 11 11 11 11
10 9 9 9 10 10 10 10 10 10 10 11 11 13 13 13 11 11 11 11 10 10 10 9 9 9 9 9 9 10 10 10 10 10 10 10 10 10 10 10 11 11 11 11
9 9 9 9 9 10 10 9 9 9 10 11 10 12 14 13 12 12 12 11 10 10 9 9 9 9 9 9 9 9 9 9 9 9 9 9 9 9 10 10 10 10 10 10
9 8 9 9 9 9 9 9 9 9 10 10 10 10 13 12 12 13 13 11 10 10 9 9 9 9 8 9 9 9 9 9 9 9 9 9 9 9 9 9 9 10 10 10
9 8 8 9 9 8 9 9 9 9 9 10 10 10 13 13 13 13 12 11 10 9 9 9 8 8 8 8 8 8 8 8 8 8 9 8 8 9 9 9 9 9 9 9
9 9 8 8 9 9 9 10 10 11 11 12 10 9 12 13 12 12 11 11 10 9 9 8 8 8 8 8 8 8 8 8 8 8 8 8 8 8 8 8 8 8 8 9
9 10 9 8 9 9 9 9 10 11 12 12 10 10 13 12 11 10 9 9 9 9 8 8 8 8 8 8 8 8 8 8 8 8 8 8 8 8 8 8 8 8 8 8
9 9 8 8 8 8 9 9 9 9 9 9 12 12 12 11 11 10 10 9 9 9 8 8 8 8 8 8 8 8 8 7 7 7 7 7 7 7 7 7 7 7 7 8
8 8 8 8 8 7 8 8 8 8 9 11 13 12 13 12 12 11 11 10 9 9 8 8 8 8 8 8 8 8 7 7 7 7 7 7 7 7 7 7 7 7 7 7
8 7 8 8 8 9 8 7 8 8 9 10 11 13 13 12 11 11 10 10 9 8 8 8 8 8 8 8 7 7 7 7 7 7 7 7 6 6 6 7 7 6 7 7
7 7 8 8 8 7 8 8 8 8 8 8 9 12 12 11 10 9 9 9 8 8 8 8 8 8 8 7 7 7 7 7 7 7 6 6 6 6 6 6 6 6 6 7
7 7 8 9 8 7 7 7 7 8 7 8 8 11 11 10 9 9 9 9 9 8 8 8 7 7 7 7 7 7 7 7 7 6 6 6 6 6 6 6 6 6 6 6
7 7 7 9 9 8 7 7 7 7 7 8 8 11 11 11 10 10 9 9 8 8 7 7 7 7 7 7 7 7 7 7 6 6 6 6 6 6 6 6 6 6 6 6
6 6 6 7 7 7 7 7 7 6 7 7 9 9 10 11 10 9 8 8 7 7 7 7 7 7 7 7 7 7 7 7 6 6 6 6 6 6 6 5 6 5 5 6
6 6 5 6 6 6 6 6 7 7 7 7 8 8 10 9 8 8 8 7 7 7 7 7 7 7 7 7 7 7 7 6 6 6 6 6 6 5 5 5 5 5 5 5
5 5 5 6 6 6 7 8 7 7 7 7 7 9 9 8 8 8 7 7 7 7 7 7 7 7 7 7 7 7 7 6 6 6 6 6 6 5 5 5 5 5 5 5
5 4 5 5 5 6 9 8 7 7 7 7 7 8 8 8 7 7 7 6 7 7 7 7 7 7 7 7 7 7 6 6 6 6 6 6 6 5 5 5 5 5 5 5
4 4 4 5 5 7 8 7 6 6 7 8 7 7 7 6 6 7 7 7 6 6 6 6 7 7 7 7 7 6 6 6 6 6 6 6 6 5 5 5 5 5 4 4
3 4 4 4 4 6 9 7 5 6 8 8 6 7 6 6 7 8 7 6 6 6 6 6 6 6 6 6 6 6 6 6 6 6 6 5 5 5 5 5 5 4 4 4
2 3 3 4 4 6 8 6 5 7 9 7 6 6 5 6 6 6 6 5 5 5 6 6 6 6 6 6 6 6 6 6 6 6 5 5 5 5 5 4 4 4 4 3
4 4 3 4 4 6 7 5 6 8 7 6 6 6 5 5 5 5 5 5 5 5 5 5 5 5 6 5 5 5 6 6 5 5 5 5 5 5 4 4 4 4 3 3
4 5 6 5 7 7 6 6 6 6 6 6 5 5 5 4 4 4 4 4 4 5 5 5 5 5 5 5 5 5 5 5 5 5 5 4 4 4 4 4 3 3 3 3
5 4 4 4 5 6 5 5 5 5 5 5 5 4 4 4 4 4 4 4 4 4 4 4 4 4 5 5 5 5 5 5 4 4 4 4 4 4 4 3 3 3 3 3
5 3 3 4 6 5 5 5 5 5 5 4 4 4 4 3 3 3 3 3 4 4 4 4 4 4 4 4 4 4 4 4 4 4 4 4 4 4 3 3 3 3 3 3
4 4 4 5 6 6 6 5 5 4 4 4 4 4 4 3 3 3 3 3 3 3 3 3 3 3 4 4 4 4 4 4 4 4 4 3 3 3 3 3 3 3 2 2
Wind_Speed
4 4 4 4 3 2 2 1 1 2 3 4 6 10 11 8 7 8 8 7 7 7 6 4 4 4 4 3 3 3 3 2 2 2 2 2 3 3 3 3 4 5 5 5
4 5 3 1 2 3 1 1 2 3 3 4 7 11 10 8 8 7 8 8 7 7 5 5 5 5 5 4 3 3 3 3 3 2 3 3 3 3 3 3 3 4 5 5
4 3 1 2 2 2 1 1 3 5 7 4 6 7 6 5 6 6 7 8 8 7 7 5 5 5 5 5 4 3 4 4 3 3 2 2 2 3 3 3 3 3 4 4
3 2 1 1 1 1 1 1 3 5 5 3 3 5 5 5 6 6 6 7 7 6 6 6 5 6 5 5 4 4 4 4 4 3 3 4 4 4 4 4 4 3 4 4
2 1 1 1 1 2 1 2 3 4 4 5 4 5 6 3 6 6 5 5 5 5 6 6 6 6 5 5 4 4 4 4 4 4 4 4 5 5 4 4 5 4 3 3
1 0 1 1 1 1 1 2 2 2 2 4 3 5 6 4 5 3 3 4 4 5 5 5 5 5 5 4 4 5 5 5 4 4 4 5 6 6 6 6 5 4 3 3
1 1 0 1 1 1 1 3 2 2 3 3 1 5 8 4 4 5 6 5 4 4 4 5 5 5 5 5 5 5 6 5 5 5 5 6 6 7 7 6 6 5 4 4
2 1 0 1 1 2 2 2 2 3 3 4 3 7 6 3 4 6 6 6 5 4 4 5 5 5 5 5 5 5 6 5 5 5 6 6 6 5 5 6 6 6 5 5
2 2 1 1 2 2 1 1 1 2 3 6 6 6 7 4 4 4 4 4 4 5 5 6 6 6 6 6 6 6 6 6 6 6 6 6 6 6 6 6 6 5 5 5
2 4 3 2 2 1 2 1 2 2 3 5 6 6 4 3 3 3 4 5 6 6 6 6 6 7 7 6 6 6 7 7 6 6 6 5 6 6 6 5 6 6 6 5
2 3 3 2 4 4 3 3 3 3 3 4 5 4 1 3 3 4 5 6 7 8 8 7 7 7 7 6 6 6 6 7 6 6 6 6 6 6 6 6 6 6 5 5
1 3 5 5 2 3 5 5 5 4 4 5 6 8 2 4 4 5 8 9 9 9 8 8 7 7 7 7 7 7 7 7 7 6 6 6 6 6 6 6 6 5 5 4
1 3 5 3 2 3 5 6 7 6 4 7 7 8 1 2 6 8 10 11 11 10 9 8 7 7 7 7 7 7 7 7 7 6 6 6 6 6 6 6 5 5 5 4
3 5 8 9 6 4 7 9 10 9 8 10 14 17 13 13 14 14 13 13 11 10 9 8 8 7 7 8 8 7 8 7 6 6 6 7 6 6 5 5 5 5 4 4
3 6 9 14 15 14 16 17 16 17 17 14 16 19 21 18 16 16 14 13 12 11 10 9 8 8 8 8 8 8 8 7 7 7 7 7 6 5 5 5 5 5 4 4
4 6 7 12 12 14 18 21 21 21 21 22 23 23 19 15 12 12 12 11 11 11 11 10 10 9 9 8 8 8 8 7 7 8 8 7 7 6 6 6 5 5 4 4
5 5 5 9 9 11 13 14 15 12 14 14 17 15 13 12 12 12 11 11 11 12 12 11 10 9 9 9 8 9 8 7 7 8 7 7 7 7 7 6 5 5 5 5
8 6 5 6 7 9 5 1 6 10 13 15 15 15 14 13 14 13 12 11 12 11 12 11 10 10 9 8 8 8 7 8 8 8 8 7 7 7 7 7 6 6 5 5
12 9 5 4 7 11 10 5 4 7 9 10 13 15 13 11 11 9 6 8 10 12 12 11 10 10 9 8 7 7 8 8 8 9 9 8 8 8 8 8 7 6 6 6
7 10 7 6 7 8 5 0 1 3 6 3 5 8 8 7 9 9 9 10 12 12 11 11 10 9 9 8 6 8 9 9 10 10 9 8 8 8 8 8 7 6 6 6
5 7 11 12 10 10 7 2 3 4 3 3 5 8 8 8 11 14 15 14 13 13 12 11 10 9 9 8 7 9 9 10 10 8 8 8 8 8 8 7 6 6 6 6
9 8 9 8 10 11 4 4 6 7 6 7 9 10 11 13 15 16 16 16 14 13 12 11 10 10 9 8 8 10 11 10 7 7 8 8 8 7 6 7 6 6 6 6
10 10 7 10 11 8 5 9 9 9 11 12 12 13 13 15 17 17 16 16 15 14 13 11 11 11 10 8 9 11 11 8 7 8 8 8 8 7 7 8 8 7 7 6
9 9 10 12 15 16 15 15 15 14 15 16 15 16 16 17 18 18 17 16 15 15 13 11 11 12 11 10 9 11 9 7 8 9 8 8 8 8 8 7 7 7 7 7
11 8 11 17 18 17 16 16 16 16 16 17 18 17 17 18 18 18 17 16 15 14 13 11 11 12 13 11 10 9 8 8 9 9 8 8 8 8 8 8 7 8 8 8
15 15 15 18 17 15 18 16 17 18 19 19 19 19 18 16 18 17 16 15 14 14 13 12 12 12 12 11 11 9 8 9 9 8 8 7 7 7 7 7 6 7 7 8
Wind_Direction
31 79 71 56 58 82 111 181 286 302 322 292 271 272 273 268 246 240 237 237 239 243 245 236 230 232 242 250 255 262 271 271 268 262 259 253 254 256 254 262 268 261 254 244
88 67 42 76 111 115 127 277 320 319 327 294 285 279 272 258 239 236 239 239 241 244 244 233 223 221 234 244 250 265 269 269 262 255 263 262 267 261 260 269 271 265 255 248
68 49 34 103 92 93 39 295 326 320 318 284 297 276 238 234 236 239 240 240 239 239 239 230 225 225 232 242 245 253 264 268 264 256 253 259 259 262 256 258 261 268 259 246
54 33 75 84 35 343 329 348 302 306 306 302 317 287 254 235 246 237 232 230 236 236 238 237 233 232 233 242 248 252 255 258 259 253 241 245 248 252 260 265 262 263 261 253
52 18 20 14 352 315 330 327 294 288 284 283 245 260 270 237 243 235 231 232 239 240 241 243 240 238 240 241 244 248 248 249 250 250 248 250 254 257 263 265 263 262 260 258
2 309 310 331 344 264 278 282 265 239 251 258 233 243 271 227 234 248 248 253 252 250 250 250 246 241 240 235 238 243 241 243 244 244 244 250 257 257 255 258 260 261 259 256
3 132 24 279 253 172 295 302 285 246 239 254 178 250 259 263 260 266 276 281 285 266 258 253 247 241 240 239 238 239 241 242 239 241 244 249 256 255 251 253 253 254 252 250
329 292 6 311 292 304 309 294 298 295 290 298 248 249 263 275 278 272 273 278 286 283 273 263 253 245 242 242 240 240 241 242 239 240 243 247 249 250 251 251 252 252 252 251
320 294 359 302 292 262 232 214 317 285 286 280 262 266 279 251 260 262 268 280 292 293 283 272 260 252 249 246 243 240 241 244 242 242 244 248 249 248 250 251 250 251 251 251
300 286 289 307 230 219 281 190 200 235 284 284 280 265 260 236 248 266 276 293 307 303 295 283 266 257 254 251 247 244 242 242 245 244 243 244 246 249 250 250 247 245 245 240
275 278 284 253 228 230 194 199 220 237 262 276 291 279 249 250 279 285 292 304 308 303 298 288 273 262 255 252 248 244 243 242 242 243 243 243 245 246 246 245 244 240 238 234
260 275 273 260 262 293 244 233 214 242 249 248 275 279 316 269 289 293 299 306 307 303 297 289 279 267 256 250 246 243 243 242 243 244 245 246 244 242 243 243 241 236 233 229
227 263 289 256 202 201 233 230 230 247 262 243 251 267 85 292 294 296 300 304 306 304 299 293 282 268 261 256 250 245 244 242 242 242 243 244 239 237 242 241 236 230 227 224
244 247 248 268 293 272 258 248 232 226 239 250 248 266 278 290 296 301 304 303 304 303 299 293 286 274 265 258 252 248 246 240 237 236 237 238 234 232 233 235 229 224 222 220
224 259 259 267 274 272 267 262 247 237 241 251 265 272 281 290 294 295 296 296 298 304 304 297 289 282 272 263 254 247 246 239 232 231 232 232 229 227 225 225 223 217 215 218
240 261 275 276 270 270 270 262 252 248 248 251 264 274 280 290 292 291 292 293 296 302 303 299 292 285 276 265 256 248 245 239 232 231 231 229 222 219 220 219 218 215 211 209
236 244 267 276 287 291 271 256 238 234 234 240 252 263 281 289 295 297 298 296 295 299 299 298 293 285 278 269 257 248 243 236 231 232 230 226 221 218 218 215 213 216 213 208
229 229 249 280 291 255 255 212 232 237 247 237 249 265 276 284 296 296 287 285 294 300 300 297 293 288 282 274 261 250 241 233 231 229 227 221 217 217 215 212 213 215 213 210
221 218 234 251 267 275 279 258 224 236 269 249 249 265 278 293 299 290 281 283 291 297 297 292 289 285 279 272 263 250 239 233 232 230 225 219 214 214 211 211 212 210 207 207
209 218 230 238 254 260 273 225 212 250 273 270 250 279 292 299 299 308 318 306 299 297 296 292 290 284 274 268 256 245 241 235 234 230 227 220 213 212 213 212 209 206 205 207
185 210 225 236 249 265 269 177 172 246 299 330 279 287 287 281 288 304 307 303 300 296 295 291 286 279 273 268 250 245 245 241 238 231 224 219 214 214 213 208 204 200 199 200
203 205 216 222 234 252 206 165 223 274 306 299 293 291 287 285 290 295 297 298 298 295 293 290 285 280 276 264 247 247 248 247 238 225 222 218 214 210 205 201 198 197 196 199
221 219 222 221 238 274 239 246 264 289 290 293 293 292 290 290 292 295 295 295 294 292 289 287 282 281 278 263 244 247 251 244 230 221 221 220 213 209 204 201 196 195 197 201
241 239 245 255 260 268 272 271 275 278 282 286 288 289 290 290 292 294 294 293 291 288 286 284 280 277 276 269 253 248 249 236 223 223 222 216 212 209 204 203 199 199 200 203
248 233 249 261 271 280 274 271 275 282 284 286 289 288 286 287 288 289 291 290 288 286 283 279 274 273 273 272 264 254 242 227 222 223 221 215 211 208 205 206 206 206 210 210
244 243 250 262 270 275 282 287 287 286 287 289 290 290 288 284 284 287 288 288 286 284 282 278 273 270 270 268 263 254 237 222 218 219 218 214 209 205 205 204 209 211 215 211
Height
1510 1509 1509 1511 1511 1510 1509 1509 1506 1507 1508 1507 1501 1498 1496 1496 1497 1496 1496 1497 1497 1497 1497 1497 1496 1496 1496 1496 1497 1497 1497 1497 1497 1496 1496 1496 1497 1496 1497 1497 1497 1497 1498 1498
1510 1512 1515 1515 1514 1512 1511 1509 1507 1507 1508 1507 1501 1496 1492 1492 1493 1493 1493 1493 1494 1494 1494 1494 1493 1493 1493 1493 1493 1493 1493 1493 1493 1493 1493 1493 1493 1493 1494 1494 1494 1494 1494 1494
1512 1517 1517 1515 1513 1512 1511 1510 1510 1510 1508 1505 1503 1490 1487 1488 1490 1490 1490 1490 1491 1491 1491 1491 1490 1490 1490 1490 1490 1490 1490 1490 1490 1490 1490 1490 1490 1490 1490 1490 1490 1490 1490 1490
1515 1518 1517 1515 1514 1513 1511 1514 1514 1512 1508 1502 1505 1494 1482 1484 1486 1486 1486 1487 1487 1488 1488 1488 1488 1487 1487 1487 1487 1487 1487 1487 1487 1487 1487 1486 1486 1486 1486 1486 1486 1486 1486 1486
1517 1519 1517 1516 1516 1516 1514 1515 1514 1512 1509 1507 1502 1502 1482 1483 1482 1480 1482 1483 1484 1485 1485 1485 1484 1484 1484 1484 1484 1484 1484 1483 1483 1483 1483 1483 1483 1483 1483 1483 1482 1482 1482 1482
1519 1521 1520 1518 1518 1518 1516 1515 1512 1511 1508 1504 1499 1499 1482 1477 1478 1478 1480 1481 1482 1482 1482 1482 1482 1481 1481 1481 1480 1480 1480 1480 1480 1480 1479 1479 1479 1479 1479 1478 1478 1478 1478 1478
1517 1519 1520 1520 1517 1516 1515 1512 1506 1502 1500 1493 1501 1499 1483 1475 1478 1479 1479 1479 1480 1479 1479 1479 1478 1478 1478 1477 1477 1477 1476 1476 1476 1476 1476 1475 1475 1475 1475 1474 1474 1474 1474 1474
1517 1515 1518 1519 1517 1515 1515 1513 1510 1503 1495 1489 1498 1491 1476 1476 1478 1479 1479 1478 1478 1477 1476 1476 1475 1475 1475 1474 1474 1473 1473 1473 1473 1472 1472 1472 1471 1471 1470 1470 1470 1470 1469 1470
1519 1516 1519 1520 1519 1518 1514 1513 1514 1512 1510 1504 1485 1481 1475 1475 1475 1476 1476 1476 1476 1475 1474 1473 1473 1472 1472 1471 1471 1470 1469 1469 1469 1468 1468 1468 1467 1467 1466 1466 1466 1465 1465 1465
1523 1521 1518 1519 1520 1519 1517 1515 1515 1513 1506 1492 1478 1476 1471 1470 1472 1473 1474 1474 1474 1473 1472 1471 1470 1469 1469 1468 1468 1467 1466 1466 1465 1465 1464 1464 1463 1463 1462 1462 1461 1461 1461 1461
1524 1522 1517 1517 1515 1512 1517 1517 1514 1511 1508 1499 1485 1471 1468 1470 1471 1472 1473 1473 1472 1471 1469 1468 1467 1466 1465 1465 1464 1463 1463 1462 1462 1461 1461 1460 1459 1459 1458 1458 1458 1458 1458 1458
1525 1523 1516 1512 1514 1516 1514 1511 1511 1510 1506 1505 1495 1478 1470 1471 1472 1473 1472 1471 1469 1468 1467 1465 1464 1462 1462 1461 1460 1459 1459 1458 1458 1457 1457 1456 1456 1455 1455 1454 1454 1454 1454 1454
1525 1523 1515 1505 1512 1516 1513 1511 1511 1510 1508 1503 1496 1476 1471 1472 1471 1471 1470 1469 1467 1465 1463 1462 1460 1458 1458 1457 1456 1455 1455 1454 1454 1454 1453 1453 1452 1451 1451 1451 1451 1451 1451 1451
1524 1521 1517 1506 1501 1506 1507 1507 1508 1509 1505 1495 1486 1471 1467 1468 1469 1468 1467 1466 1464 1462 1460 1458 1456 1455 1454 1453 1452 1451 1451 1450 1450 1449 1449 1449 1448 1448 1448 1448 1448 1447 1448 1448
1522 1518 1514 1509 1507 1507 1504 1501 1501 1501 1495 1491 1476 1472 1466 1467 1467 1466 1465 1463 1461 1459 1457 1455 1453 1451 1450 1449 1448 1447 1447 1446 1446 1445 1445 1445 1445 1445 1444 1444 1444 1444 1444 1444
1519 1517 1514 1508 1505 1503 1498 1491 1490 1489 1487 1483 1478 1471 1465 1466 1465 1463 1461 1460 1457 1455 1453 1451 1449 1447 1446 1445 1443 1442 1442 1442 1441 1441 1441 1441 1441 1441 1441 1441 1441 1441 1441 1441
1516 1515 1513 1502 1500 1499 1486 1475 1477 1478 1476 1476 1472 1465 1463 1463 1461 1460 1458 1457 1454 1452 1450 1447 1445 1443 1442 1440 1439 1438 1437 1437 1437 1436 1436 1436 1436 1437 1437 1437 1437 1437 1437 1437
1513 1513 1511 1503 1500 1493 1469 1472 1471 1471 1469 1469 1465 1462 1461 1460 1458 1456 1454 1453 1450 1448 1446 1443 1441 1439 1438 1436 1435 1433 1433 1432 1432 1432 1432 1432 1432 1432 1432 1433 1433 1433 1433 1433
1508 1509 1507 1503 1493 1478 1468 1468 1470 1468 1463 1462 1461 1460 1459 1458 1456 1451 1450 1449 1447 1445 1442 1439 1437 1435 1433 1431 1430 1429 1428 1427 1427 1427 1427 1427 1427 1427 1428 1428 1428 1429 1429 1429
1506 1506 1505 1500 1495 1480 1462 1467 1467 1468 1460 1458 1458 1458 1457 1457 1452 1447 1447 1445 1442 1440 1437 1434 1432 1429 1428 1427 1425 1424 1423 1422 1422 1422 1422 1422 1422 1423 1423 1423 1424 1424 1425 1425
1502 1503 1500 1495 1489 1470 1462 1465 1467 1464 1456 1456 1456 1455 1455 1453 1450 1447 1443 1440 1437 1434 1432 1429 1427 1424 1422 1421 1420 1418 1417 1417 1417 1417 1417 1417 1417 1418 1418 1419 1419 1420 1421 1421
1488 1489 1489 1486 1484 1469 1459 1462 1461 1455 1453 1453 1452 1451 1450 1447 1444 1441 1438 1434 1431 1428 1426 1424 1421 1418 1417 1416 1414 1412 1412 1412 1412 1411 1411 1412 1412 1412 1413 1414 1415 1415 1416 1416
1478 1474 1470 1470 1462 1456 1456 1454 1453 1452 1450 1449 1448 1446 1444 1441 1438 1434 1431 1428 1425 1422 1420 1418 1415 1413 1411 1410 1408 1406 1406 1406 1405 1405 1405 1406 1406 1407 1407 1408 1409 1410 1411 1412
1469 1469 1467 1462 1454 1452 1452 1450 1449 1448 1446 1444 1442 1440 1438 1435 1431 1428 1424 1421 1418 1415 1413 1411 1409 1406 1404 1403 1402 1400 1400 1400 1399 1399 1400 1400 1401 1401 1402 1403 1404 1405 1406 1407
1461 1463 1460 1454 1449 1447 1444 1444 1443 1441 1440 1438 1436 1434 1431 1428 1424 1421 1417 1414 1411 1408 1406 1404 1402 1399 1397 1396 1395 1394 1394 1393 1393 1393 1394 1394 1395 1396 1396 1398 1399 1400 1401 1403
1453 1453 1451 1443 1441 1442 1438 1438 1437 1435 1432 1430 1428 1425 1422 1420 1416 1413 1409 1406 1403 1401 1398 1396 1394 1392 1391 1389 1388 1388 1387 1387 1387 1387 1388 1388 1389 1390 1391 1392 1393 1395 1397 1398